This is the latest recevied weather packets stored in our database for station/object WA4OPQ-1. If no packets are shown the sender has not sent any weather packets the latest 10 day(s).
| Time | Temp. | Humidity | Pressure | Rain* | Wind** | Luminosity | Snow |
|---|---|---|---|---|---|---|---|
| 1787575744 | 18.89° C | 90% | 1015.1 hPa | 0 mm | 0 m/s | 27 W/m² | - |
| 1787575159 | 18.89° C | 91% | 1015.6 hPa | 0 mm | 0 m/s | 25 W/m² | - |
| 1787574574 | 18.33° C | 92% | 1015.6 hPa | 0 mm | 0 m/s | 24 W/m² | - |
| 1787574049 | 17.78° C | 92% | 1015.5 hPa | 0 mm | 0 m/s | 23 W/m² | - |
| 1787573454 | 17.78° C | 92% | 1015.5 hPa | 0 mm | 0 m/s | 20 W/m² | - |
| 1787572859 | 17.78° C | 92% | 1015.4 hPa | 0 mm | 0 m/s | 16 W/m² | - |
| 1787572329 | 17.78° C | 92% | 1015.1 hPa | 0 mm | 0 m/s | 14 W/m² | - |
| 1787571824 | 17.78° C | 92% | 1015.5 hPa | 0 mm | 0 m/s | 14 W/m² | - |
| 1787571269 | 17.22° C | 92% | 1015.2 hPa | 0 mm | 0 m/s | 10 W/m² | - |
| 1787570701 | 17.22° C | 92% | 1015.3 hPa | 0 mm | 0 m/s | 4 W/m² | - |
| 1787570109 | 17.22° C | 93% | 1015.4 hPa | 0 mm | 0 m/s | 0 W/m² | - |
| 1787569599 | 17.22° C | 93% | 1015.2 hPa | 0 mm | 0 m/s | 0 W/m² | - |
| 1787569074 | 17.22° C | 92% | 1015.1 hPa | 0 mm | 0 m/s | 0 W/m² | - |
| 1787568569 | 17.22° C | 92% | 1015 hPa | 0 mm | 0 m/s | 0 W/m² | - |
| 1787568085 | 17.22° C | 93% | 1015.2 hPa | 0 mm | 0 m/s | 0 W/m² | - |
| 1787567494 | 17.22° C | 93% | 1015.1 hPa | 0 mm | 0 m/s | 0 W/m² | - |
| 1787566919 | 17.22° C | 94% | 1015.2 hPa | 0 mm | 0 m/s | 0 W/m² | - |
| 1787566414 | 17.22° C | 95% | 1015 hPa | 0 mm | 0 m/s | 0 W/m² | - |
| 1787565814 | 17.78° C | 94% | 1015 hPa | 0 mm | 0 m/s | 0 W/m² | - |
| 1787565264 | 17.78° C | 94% | 1015 hPa | 0 mm | 0 m/s | 0 W/m² | - |
| 1787564669 | 17.78° C | 94% | 1015 hPa | 0 mm | 0 m/s | 0 W/m² | - |
| 1787564154 | 17.78° C | 94% | 1014.8 hPa | 0 mm | 0 m/s | 0 W/m² | - |
| 1787563599 | 17.78° C | 94% | 1015 hPa | 0 mm | 0 m/s | 0 W/m² | - |
| 1787563049 | 17.78° C | 94% | 1015.1 hPa | 0 mm | 0 m/s | 0 W/m² | - |
| 1787562544 | 17.78° C | 94% | 1014.6 hPa | 0 mm | 0 m/s | 0 W/m² | - |
* Rain latest hour (hover to see other rain measurements)
** Current wind speed in m/s (hover to see current wind gust speed)